Augusta, ME

1:07 PM EDT on April 27, 2017 (GMT -0400)
Augusta State

Weather History for KAUG - November, 2012

Change the Weather History Date:

Friday, November 9, 2012

  Actual Average Record
Temperature  
Mean Temperature 42 °F 40 °F  
Max Temperature 48 °F 48 °F 68 °F (1975)
Min Temperature 35 °F 33 °F 19 °F (1995)
Degree Days  
Heating Degree Days 24 25  
Month to date heating degree days 210  
Since 1 July heating degree days 945  
Cooling Degree Days 0 0  
Month to date cooling degree days 0  
Year to date cooling degree days 388  
Moisture  
Dew Point 29 °F    
Average Humidity 67    
Maximum Humidity 93    
Minimum Humidity 42    
Precipitation  
Precipitation 0.00 in 0.15 in 1.95 in (1977)
Month to date precipitation 1.37  
Year to date precipitation 35.65  
Sea Level Pressure  
Sea Level Pressure 29.87 in    
Wind  
Wind Speed 13 mph (NW)    
Max Wind Speed 20 mph    
Max Gust Speed 28 mph    
Visibility 10 miles    
Events      
T = Trace of Precipitation, MM = Missing Value Source: NWS Daily Summary

Daily Weather History Graph

Daily Weather History Graph

Search for Another Location

Airport or City:

Trip Planner

Search our weather history database for the weather conditions in past years. The results will help you decide how hot, cold, wet, or windy it might be!

Date:

Astronomy

Nov. 09, 2012 Rise Set
Actual Time 6:27 AM EST 4:17 PM EST
Civil Twilight 5:56 AM EST 4:48 PM EST
Nautical Twilight 5:21 AM EST 5:23 PM EST
Astronomical Twilight 4:47 AM EST 5:57 PM EST
Moon 1:12 AM EST (11/9) 1:38 PM EST (11/9)
Length of Visible Light 10h 52m
Length of Day
9h 50m
Waning Crescent, 23% of the Moon is Illuminated
Nov 9
Waning Crescent
Nov 13
New
Nov 20
First Quarter
Nov 28
Full
Dec 6
Last Quarter

Hourly Weather History & Observations

Time (EST) Temp. Windchill Dew Point Humidity Pressure Visibility Wind Dir Wind Speed Gust Speed Precip Events Conditions
12:42 AM 35.6 °F 25.9 °F 33.8 °F 93% 29.74 in 10.0 mi NNW 16.1 mph 25.3 mph N/A   Overcast
12:53 AM 35.1 °F 25.9 °F 33.1 °F 92% 29.75 in 10.0 mi NNW 13.8 mph 25.3 mph N/A   Overcast
1:53 AM 35.1 °F 25.2 °F 32.0 °F 89% 29.76 in 10.0 mi NNW 16.1 mph 25.3 mph N/A   Overcast
2:53 AM 35.1 °F 24.1 °F 30.9 °F 85% 29.76 in 10.0 mi NNW 19.6 mph 27.6 mph N/A   Overcast
3:53 AM 36.0 °F 26.0 °F 30.9 °F 82% 29.77 in 10.0 mi NNW 17.3 mph 25.3 mph N/A   Overcast
4:42 AM 35.6 °F 25.5 °F 30.2 °F 81% 29.77 in 10.0 mi NNW 17.3 mph 25.3 mph N/A   Overcast
4:53 AM 36.0 °F 26.0 °F 30.0 °F 79% 29.79 in 10.0 mi North 17.3 mph 25.3 mph N/A   Overcast
5:53 AM 36.0 °F 28.0 °F 30.0 °F 79% 29.81 in 10.0 mi NNW 11.5 mph - N/A   Overcast
6:53 AM 36.0 °F 28.0 °F 30.0 °F 79% 29.83 in 10.0 mi NNW 11.5 mph - N/A   Overcast
7:53 AM 37.9 °F 31.5 °F 30.0 °F 73% 29.85 in 10.0 mi NNW 9.2 mph 17.3 mph N/A   Overcast
8:53 AM 39.0 °F 31.4 °F 30.0 °F 70% 29.85 in 10.0 mi NNW 12.7 mph 21.9 mph N/A   Clear
9:53 AM 42.1 °F 33.9 °F 30.0 °F 62% 29.87 in 10.0 mi NNW 17.3 mph 26.5 mph N/A   Clear
10:53 AM 44.1 °F 37.4 °F 30.9 °F 60% 29.86 in 10.0 mi North 13.8 mph - N/A   Partly Cloudy
11:53 AM 46.0 °F 40.6 °F 32.0 °F 58% 29.86 in 10.0 mi North 11.5 mph - N/A   Clear
12:53 PM 46.9 °F - 32.0 °F 56% 29.85 in 10.0 mi NNW 8.1 mph - N/A   Clear
1:53 PM 48.0 °F - 28.9 °F 48% 29.85 in 10.0 mi NW 15.0 mph 24.2 mph N/A   Clear
2:53 PM 48.0 °F - 27.0 °F 44% 29.88 in 10.0 mi NW 16.1 mph 21.9 mph N/A   Clear
3:53 PM 46.0 °F 40.2 °F 24.1 °F 42% 29.90 in 10.0 mi NW 12.7 mph 18.4 mph N/A   Clear
4:53 PM 43.0 °F 36.4 °F 21.9 °F 43% 29.94 in 10.0 mi NW 12.7 mph - N/A   Clear
5:53 PM 41.0 °F 35.2 °F 23.0 °F 49% 29.97 in 10.0 mi WNW 9.2 mph - N/A   Clear
6:53 PM 39.9 °F 35.1 °F 23.0 °F 51% 29.98 in 10.0 mi West 6.9 mph - N/A   Clear
7:53 PM 37.9 °F 34.4 °F 25.0 °F 60% 30.00 in 10.0 mi WNW 4.6 mph - N/A   Clear
8:53 PM 37.0 °F - 26.1 °F 65% 30.01 in 10.0 mi Calm Calm - N/A   Clear
9:53 PM 36.0 °F 32.1 °F 27.0 °F 70% 30.01 in 10.0 mi WSW 4.6 mph - N/A   Clear
10:53 PM 37.0 °F 32.4 °F 28.0 °F 70% 30.04 in 10.0 mi WNW 5.8 mph - N/A   Clear
11:53 PM 36.0 °F 32.1 °F 28.0 °F 73% 30.02 in 10.0 mi SW 4.6 mph - N/A   Clear